Regional Weather Roundup
Issued by NWS

Home | Current Version | Previous Version | Graphics & Text | Print | Product List | Glossary On
Versions: 1 2 3 4 5 6 7 8 9 10 11 12 13 14 15 16 17 18 19 20 21 22 23 24 25 26 27 28 29 30 31 32 33 34 35 36 37 38 39 40 41 42 43 44 45
000
ASUS45 KBOU 240710
RWRCO

WEATHER ROUNDUP FOR COLORADO
NATIONAL WEATHER SERVICE PUEBLO CO
1200 AM MST SAT FEB 24 2018

NOTE: "FAIR" INDICATES FEW OR NO CLOUDS BELOW 12000 FEET WITH NO
SIGNIFICANT WEATHER AND/OR OBSTRUCTIONS TO VISIBILITY.

COZ001>005-013-030-031-240800-
...NORTHWEST COLORADO...

CITY           SKY/WX    TMP DP  RH WIND       PRES   REMARKS
CRAIG          CLOUDY    16   9  74 VRB3      29.95R
HAYDEN         FLURRIES  14  10  84 W13       29.92F WCI   0
MEEKER         CLOUDY    21  14  74 W12       29.92R WCI   9
RABBIT EARS PA NOT AVBL
STEAMBOAT SPGS CLOUDY    16  14  93 CALM      29.89S
WALDEN         MOCLDY    14   7  73 SW7       29.80F WCI   4
$$

COZ006>008-011-240800-
...WEST CENTRAL VALLEYS...

CITY           SKY/WX    TMP DP  RH WIND       PRES   REMARKS
GRAND JUNCTION PTCLDY    26  24  92 CALM      29.97S
MONTROSE       CLOUDY    22  20  92 S6        29.97S WCI  14
EAGLE          CLOUDY    25  16  68 W8        29.89F WCI  16
RIFLE          CLOUDY    25  23  92 W8        29.94S WCI  16
DELTA          NOT AVBL
NUCLA          CLOUDY    19  16  86 CALM      30.00S
$$

COZ017>023-064>068-240800-
...SOUTHWEST COLORADO...

CITY           SKY/WX    TMP DP  RH WIND       PRES   REMARKS
DURANGO        MOCLDY    22  17  81 W13       29.90S WCI  10
CORTEZ         LGT SNOW  22  21  96 CALM      29.97F FOG
PAGOSA SPRINGS MOCLDY    22  21  96 SW7       29.88S WCI  13
TELLURIDE      FLURRIES  14  12  92 W7        29.87S WCI   3
WOLF CREEK PAS CLOUDY     5   3  92 SW21G33   29.77F WCI -16
$$

COZ009-010-012-014-032>034-037-058>063-240800-
...CENTRAL COLORADO...

CITY           SKY/WX    TMP DP  RH WIND       PRES   REMARKS
ASPEN          LGT SNOW  18  15  88 N5        29.82F FOG     WCI  11
BUENA VISTA    FAIR      21   9  58 W9        29.78S WCI  11
COPPER MTN     CLOUDY     7   1  78 NW3       29.69F HAZE
BERTHOUD PASS  SNOW       1  -9  60 NW16G22   29.65F VSB 1/4 WCI -18
COTTONWOOD PAS CLOUDY    21  10  63 W18G28    29.73F WCI   6
GUNNISON       MOCLDY    19  11  70 SW8       29.84F WCI   9
KREMMLING      LGT SNOW  23  19  86 N6        29.85S WCI  16
LEADVILLE      CLOUDY     8   5  87 NE6       29.73F WCI  -2
MONARCH PASS   LGT SNOW   5   1  85 SW21      29.80F VSB 3/4 WCI -16
SALIDA         FAIR      25   8  48 SW9       29.87S WCI  16
SUNLIGHT       HVY SNOW   5   3  92 W12G21    29.80F VSB 1/4 WCI -11
WILKERSON PASS SNOW       9   5  85 W6        29.73F VSB 1/2 WCI  -1
$$

COZ069>075-240800-
...SAN LUIS VALLEY/SANGRE DE CRISTO MOUNTAINS...

CITY           SKY/WX    TMP DP  RH WIND       PRES   REMARKS
ALAMOSA        MOCLDY    25   9  50 W14       29.81S WCI  13
DEL NORTE      CLOUDY    21  16  81 SW6       29.82F WCI  13
LA VETA PASS   CLOUDY    18  12  79 S24G38    29.85F WCI   0
SAGUACHE       MOCLDY    21  14  73 NW12      29.81F WCI   9
$$

COZ035-036-038>040-240800-
...NORTHERN COLORADO FRONT RANGE...

CITY           SKY/WX    TMP DP  RH WIND       PRES   REMARKS
DENVER INTL AP CLOUDY    25  22  88 SW6       29.84F FOG     WCI  18
DMNS CITY PARK NOT AVBL
AURORA         CLOUDY    24  24  99 N7        29.84F WCI  16
FRONT RANGE AP CLOUDY    27  25  94 CALM      29.85F FOG
ERIE MUNI ARPT CLOUDY    26  23  91 N3        29.93R
BOULDER MUN AP CLOUDY    27  25  93 N5        29.86S WCI  21
CENTENNIAL     LGT SNOW  25  20  81 CALM      29.82F
BROOMFIELD     NOT AVBL
LOVELAND       FLURRIES  25  23  92 NE9       29.87F WCI  15
LONGMONT       CLOUDY    28  24  85 NE3       29.89S
$$

COZ041-046-047-076>085-087-088-240800-
...PIKES PEAK/PALMER DIVIDE AND SOUTHERN FOOTHILLS...

CITY           SKY/WX    TMP DP  RH WIND       PRES   REMARKS
COLO. SPRINGS  MOCLDY    21  19  92 CALM      29.82F FOG
A. F. ACADEMY  CLOUDY    21  19  94 CALM      29.79F
SCHRIEVER AFB  NOT AVBL
CHEYENNE MTN   NOT AVBL
ELLICOTT         N/A    N/A N/A N/A S3        29.81F
FALCON         CLOUDY    20  19  96 CALM      29.79F
FORT CARSON    CLOUDY    21  19  93 S5        29.83F WCI  15
LIMON          SNOW      22  22 100 SE7       29.84F VSB 1/2 WCI  13
MONUMENT HILL  CLOUDY    21  18  86 NW5       29.80F WCI  15
CANON CITY     CLOUDY    27  25  93 MISG      29.85F
WALSENBURG     CLOUDY    25  25 100 E5        29.83F WCI  19
TRINIDAD       CLOUDY    24  23  96 E3        29.85F FOG
$$

COZ042>045-048>051-090-091-240800-
...NORTHEAST COLORADO...

CITY           SKY/WX    TMP DP  RH WIND       PRES   REMARKS
GREELEY ARPT   CLOUDY    25  22  88 E10       29.87  WCI  15
AKRON          FLURRIES  24  23  96 S10       29.89R WCI  14
BURLINGTON     CLOUDY    23  22  96 SE8       29.92F WCI  14
WRAY           CLOUDY    27  25  93 SE6       29.96F FOG     WCI  20
YUMA           NOT AVBL
STERLING       CLOUDY    27  23  86 E10       29.91F WCI  17
HOLYOKE        CLOUDY    25  23  93 E12       29.96F FOG     WCI  14
FORT MORGAN    CLOUDY    26  22  86 E6        29.89F WCI  19
$$

COZ086-089-092>099-240800-
...SOUTHEAST COLORADO...

CITY           SKY/WX    TMP DP  RH WIND       PRES   REMARKS
PUEBLO         CLOUDY    26  25  96 E6        29.89S FOG     WCI  19
LA JUNTA       CLOUDY    27  25  92 E8        29.91F FOG     WCI  19
LAMAR          CLOUDY    27  24  89 E10       29.92F FOG     WCI  17
SPRINGFIELD      N/A     25  25 100 SE7       29.88F WCI  17
$$





USA.gov is the U.S. government's official web portal to all federal, state and local government web resources and services.